SB KEPS @ AMSAT $ORB11363.O Orbital Elements 11363.OSCAR
HR AMSAT ORBITAL ELEMENTS FOR OSCAR SATELLITES FROM WA5QGD FORT WORTH,TX December 29, 2011 Send Subscribe/unsubscribe to KEPS at http://www.amsat.org/mailman/listinfo/keps BID: ORB11363.O TO ALL RADIO AMATEURS BT
Satellite: AO-07 Catalog number: 07530 Epoch time: 11362.96224543 Element set: 0267 Inclination: 101.3969 deg RA of node: 001.8360 deg Eccentricity: 0.0011823 Arg of perigee: 258.6089 deg Mean anomaly: 101.3658 deg Mean motion: 12.53586741 rev/day Decay rate: -2.7e-07 rev/day^2 Epoch rev: 69859 Checksum: 309
Satellite: FO-29 Catalog number: 24278 Epoch time: 11362.84328549 Element set: 0754 Inclination: 098.5744 deg RA of node: 121.0279 deg Eccentricity: 0.0351176 Arg of perigee: 112.9206 deg Mean anomaly: 250.9388 deg Mean motion: 13.52974958 rev/day Decay rate: 3.0e-08 rev/day^2 Epoch rev: 75878 Checksum: 347
Satellite: SO-33 Catalog number: 25509 Epoch time: 11362.72650248 Element set: 0132 Inclination: 031.4302 deg RA of node: 223.8999 deg Eccentricity: 0.0353080 Arg of perigee: 143.2147 deg Mean anomaly: 219.3340 deg Mean motion: 14.28632236 rev/day Decay rate: 6.56e-06 rev/day^2 Epoch rev: 68811 Checksum: 286
Satellite: RS-22 Catalog number: 27939 Epoch time: 11363.73806406 Element set: 943 Inclination: 097.8228 deg RA of node: 208.1649 deg Eccentricity: 0.0014565 Arg of perigee: 085.9157 deg Mean anomaly: 274.3715 deg Mean motion: 14.63847021 rev/day Decay rate: 6.67e-06 rev/day^2 Epoch rev: 44094 Checksum: 335
Satellite: VO-52 Catalog number: 28650 Epoch time: 11362.64827264 Element set: 0986 Inclination: 097.6191 deg RA of node: 036.8555 deg Eccentricity: 0.0025491 Arg of perigee: 243.6545 deg Mean anomaly: 116.2045 deg Mean motion: 14.82568641 rev/day Decay rate: 9.12e-06 rev/day^2 Epoch rev: 35955 Checksum: 331
Satellite: SO-67 Catalog number: 35870 Epoch time: 11363.76300387 Element set: 539 Inclination: 097.2560 deg RA of node: 040.4630 deg Eccentricity: 0.0003683 Arg of perigee: 063.7322 deg Mean anomaly: 039.3255 deg Mean motion: 15.22411250 rev/day Decay rate: 4.442e-05 rev/day^2 Epoch rev: 12667 Checksum: 285
Satellite: HO-68 Catalog number: 36122 Epoch time: 11363.27461342 Element set: 55 Inclination: 100.3901 deg RA of node: 060.8988 deg Eccentricity: 0.0007593 Arg of perigee: 137.8614 deg Mean anomaly: 222.3083 deg Mean motion: 13.16291958 rev/day Decay rate: -4.4e-07 rev/day^2 Epoch rev: 9790 Checksum: 298
/EX SB KEPS @ AMSAT $ORB11363.D Orbital Elements 11363.MICROS
HR AMSAT ORBITAL ELEMENTS FOR THE MICROSATS FROM WA5QGD FORT WORTH,TX December 29, 2011 Send Subscribe/unsubscribe to KEPS at http://www.amsat.org/mailman/listinfo/keps BID: ORB11363.D TO ALL RADIO AMATEURS BT
Satellite: UO-11 Catalog number: 14781 Epoch time: 11363.72048500 Element set: 746 Inclination: 097.9801 deg RA of node: 059.5437 deg Eccentricity: 0.0008177 Arg of perigee: 222.4485 deg Mean anomaly: 137.6094 deg Mean motion: 14.80253873 rev/day Decay rate: 5.42e-06 rev/day^2 Epoch rev: 49471 Checksum: 314
Satellite: AO-16 Catalog number: 20439 Epoch time: 11362.90326226 Element set: 0369 Inclination: 098.4101 deg RA of node: 306.2614 deg Eccentricity: 0.0010400 Arg of perigee: 310.7889 deg Mean anomaly: 049.2391 deg Mean motion: 14.32000695 rev/day Decay rate: 1.44e-06 rev/day^2 Epoch rev: 14548 Checksum: 271
Satellite: LO-19 Catalog number: 20442 Epoch time: 11363.86065335 Element set: 283 Inclination: 098.3749 deg RA of node: 310.8071 deg Eccentricity: 0.0010983 Arg of perigee: 298.6353 deg Mean anomaly: 061.3728 deg Mean motion: 14.32222825 rev/day Decay rate: 1.46e-06 rev/day^2 Epoch rev: 14580 Checksum: 299
Satellite: AO-27 Catalog number: 22825 Epoch time: 11362.82231503 Element set: 0996 Inclination: 098.5559 deg RA of node: 303.4842 deg Eccentricity: 0.0009192 Arg of perigee: 066.0059 deg Mean anomaly: 294.2102 deg Mean motion: 14.29414901 rev/day Decay rate: 3.3e-07 rev/day^2 Epoch rev: 95199 Checksum: 306
Satellite: IO-26 Catalog number: 22826 Epoch time: 11363.83552550 Element set: 742 Inclination: 098.5501 deg RA of node: 304.8954 deg Eccentricity: 0.0009800 Arg of perigee: 057.0192 deg Mean anomaly: 303.1935 deg Mean motion: 14.29684809 rev/day Decay rate: 1.37e-06 rev/day^2 Epoch rev: 95226 Checksum: 310
Satellite: GO-32 Catalog number: 25397 Epoch time: 11363.84698034 Element set: 665 Inclination: 098.3444 deg RA of node: 346.1207 deg Eccentricity: 0.0002195 Arg of perigee: 074.1535 deg Mean anomaly: 285.9886 deg Mean motion: 14.23249199 rev/day Decay rate: 8.1e-07 rev/day^2 Epoch rev: 69979 Checksum: 351
Satellite: NO-44 Catalog number: 26931 Epoch time: 11363.84792738 Element set: 932 Inclination: 067.0487 deg RA of node: 199.3388 deg Eccentricity: 0.0005182 Arg of perigee: 277.8256 deg Mean anomaly: 082.2256 deg Mean motion: 14.29743814 rev/day Decay rate: 2.50e-06 rev/day^2 Epoch rev: 53489 Checksum: 345
Satellite: SO-50 Catalog number: 27607 Epoch time: 11362.72493297 Element set: 0650 Inclination: 064.5592 deg RA of node: 096.3899 deg Eccentricity: 0.0084418 Arg of perigee: 281.7292 deg Mean anomaly: 077.4336 deg Mean motion: 14.72125543 rev/day Decay rate: 1.130e-05 rev/day^2 Epoch rev: 48472 Checksum: 328
Satellite: CO-55 Catalog number: 27844 Epoch time: 11362.53507136 Element set: 0275 Inclination: 098.7045 deg RA of node: 008.4116 deg Eccentricity: 0.0010177 Arg of perigee: 001.9309 deg Mean anomaly: 358.1904 deg Mean motion: 14.20935486 rev/day Decay rate: 3.42e-06 rev/day^2 Epoch rev: 44051 Checksum: 288
Satellite: CO-57 Catalog number: 27848 Epoch time: 11363.49539791 Element set: 223 Inclination: 098.7115 deg RA of node: 008.6187 deg Eccentricity: 0.0010100 Arg of perigee: 005.5266 deg Mean anomaly: 354.6033 deg Mean motion: 14.20699296 rev/day Decay rate: 2.62e-06 rev/day^2 Epoch rev: 44059 Checksum: 310
Satellite: AO-51 Catalog number: 28375 Epoch time: 11363.46371788 Element set: 155 Inclination: 098.1229 deg RA of node: 331.9164 deg Eccentricity: 0.0082823 Arg of perigee: 197.8644 deg Mean anomaly: 161.9545 deg Mean motion: 14.40878614 rev/day Decay rate: 3.40e-06 rev/day^2 Epoch rev: 39418 Checksum: 336
Satellite: CP3 Catalog number: 31129 Epoch time: 11363.50038670 Element set: 55 Inclination: 097.8875 deg RA of node: 016.3229 deg Eccentricity: 0.0100679 Arg of perigee: 294.3751 deg Mean anomaly: 064.6975 deg Mean motion: 14.52820172 rev/day Decay rate: 9.24e-06 rev/day^2 Epoch rev: 24919 Checksum: 311
Satellite: CO-65 Catalog number: 32785 Epoch time: 11362.70445284 Element set: 0189 Inclination: 097.8257 deg RA of node: 062.6575 deg Eccentricity: 0.0013705 Arg of perigee: 262.0424 deg Mean anomaly: 097.9189 deg Mean motion: 14.82564762 rev/day Decay rate: 1.313e-05 rev/day^2 Epoch rev: 19835 Checksum: 337
Satellite: PRISM Catalog number: 33493 Epoch time: 11363.80785484 Element set: 281 Inclination: 098.1467 deg RA of node: 135.6979 deg Eccentricity: 0.0020092 Arg of perigee: 127.7347 deg Mean anomaly: 232.5698 deg Mean motion: 14.82947905 rev/day Decay rate: 3.514e-05 rev/day^2 Epoch rev: 15849 Checksum: 342
Satellite: SOHLA-1 Catalog number: 33496 Epoch time: 11362.96989572 Element set: 0617 Inclination: 098.0904 deg RA of node: 111.0129 deg Eccentricity: 0.0005768 Arg of perigee: 219.5541 deg Mean anomaly: 140.5249 deg Mean motion: 14.69824016 rev/day Decay rate: 4.02e-06 rev/day^2 Epoch rev: 15709 Checksum: 310
Satellite: TISAT-1 Catalog number: 36799 Epoch time: 11363.81968871 Element set: 552 Inclination: 098.0824 deg RA of node: 073.8575 deg Eccentricity: 0.0015309 Arg of perigee: 008.8128 deg Mean anomaly: 351.3330 deg Mean motion: 14.81354307 rev/day Decay rate: 2.046e-05 rev/day^2 Epoch rev: 7926 Checksum: 319
Satellite: STUDSAT Catalog number: 36801 Epoch time: 11362.88317631 Element set: 0310 Inclination: 098.0875 deg RA of node: 073.0230 deg Eccentricity: 0.0013283 Arg of perigee: 358.1237 deg Mean anomaly: 001.9907 deg Mean motion: 14.82683031 rev/day Decay rate: 5.686e-05 rev/day^2 Epoch rev: 07912 Checksum: 284
Satellite: OOREOS Catalog number: 37224 Epoch time: 11330.25217324 Element set: 0033 Inclination: 071.9741 deg RA of node: 041.3371 deg Eccentricity: 0.0020052 Arg of perigee: 337.4654 deg Mean anomaly: 022.5620 deg Mean motion: 14.77385090 rev/day Decay rate: 2.151e-05 rev/day^2 Epoch rev: 00594 Checksum: 243
Satellite: FO-69 Catalog number: 37227 Epoch time: 11362.47956699 Element set: 0061 Inclination: 071.9715 deg RA of node: 330.7957 deg Eccentricity: 0.0018911 Arg of perigee: 278.4705 deg Mean anomaly: 081.4295 deg Mean motion: 14.76870450 rev/day Decay rate: 8.21e-06 rev/day^2 Epoch rev: 01074 Checksum: 332
Satellite: FO-70 Catalog number: 37380 Epoch time: 11362.52442212 Element set: 0064 Inclination: 071.9748 deg RA of node: 331.0410 deg Eccentricity: 0.0019461 Arg of perigee: 275.6214 deg Mean anomaly: 084.2706 deg Mean motion: 14.76627493 rev/day Decay rate: 7.87e-06 rev/day^2 Epoch rev: 01064 Checksum: 288
/EX SB KEPS @ AMSAT $ORB11363.W Orbital Elements 11363.WEATHER
HR AMSAT ORBITAL ELEMENTS FOR WEATHER SATELLITES FROM WA5QGD FORT WORTH,TX December 29, 2011 Send Subscribe/unsubscribe to KEPS at http://www.amsat.org/mailman/listinfo/keps BID: ORB11363.W TO ALL RADIO AMATEURS BT
Satellite: NOAA-10 Catalog number: 16969 Epoch time: 11362.71852919 Element set: 0764 Inclination: 098.6007 deg RA of node: 029.6673 deg Eccentricity: 0.0012729 Arg of perigee: 019.6144 deg Mean anomaly: 340.5523 deg Mean motion: 14.27515881 rev/day Decay rate: 3.5e-07 rev/day^2 Epoch rev: 31540 Checksum: 309
Satellite: NOAA-11 Catalog number: 19531 Epoch time: 11362.80698569 Element set: 0760 Inclination: 098.7442 deg RA of node: 086.5122 deg Eccentricity: 0.0011379 Arg of perigee: 357.4556 deg Mean anomaly: 002.6575 deg Mean motion: 14.14946467 rev/day Decay rate: -4.0e-08 rev/day^2 Epoch rev: 20027 Checksum: 311
